Weather History for KIWA - April, 2013

Change the Weather History Date:

Monday, April 8, 2013

  Actual Average Record
Temperature  
Mean Temperature 68 °F -  
Max Temperature 84 °F 76 °F 91 °F (2012)
Min Temperature 51 °F 51 °F 42 °F (1999)
Cooling Degree Days 2    
Growing Degree Days 18 (Base 50)    
Moisture  
Dew Point 37 °F    
Average Humidity 41    
Maximum Humidity 82    
Minimum Humidity 16    
Precipitation  
Precipitation 0.12 in - - ()
Sea Level Pressure  
Sea Level Pressure 29.58 in    
Wind  
Wind Speed 12 mph (South)    
Max Wind Speed 34 mph    
Max Gust Speed 41 mph    
Visibility 8 miles    
Events Rain , Thunderstorm    
Averages and records for this station are not official NWS values.
T = Trace of Precipitation, MM = Missing Value Source: NWS Daily Summary

Daily Weather History Graph

Daily Weather History Graph

Search for Another Location

Airport or City:

Trip Planner

Search our weather history database for the weather conditions in past years. The results will help you decide how hot, cold, wet, or windy it might be!

Date:

Astronomy

Apr. 08, 2013 Rise Set
Actual Time 6:04 AM MST 6:52 PM MST
Civil Twilight 5:39 AM MST 7:17 PM MST
Nautical Twilight 5:09 AM MST 7:47 PM MST
Astronomical Twilight 4:39 AM MST 8:17 PM MST
Moon 4:52 AM MST (4/8) 5:33 PM MST (4/8)
Length of Visible Light 13h 38m
Length of Day
12h 47m
Waning Crescent, 3% of the Moon is Illuminated
Apr 8
Waning Crescent
Apr 10
New
Apr 18
First Quarter
Apr 25
Full
May 2
Last Quarter

Hourly Weather History & Observations

Time (MST) Temp. Dew Point Humidity Pressure Visibility Wind Dir Wind Speed Gust Speed Precip Events Conditions
12:15 AM 68.0 °F 35.6 °F 30% 29.72 in 10.0 mi WSW 6.9 mph - N/A   Clear
12:35 AM 66.2 °F 35.6 °F 32% 29.71 in 10.0 mi SW 3.5 mph - N/A   Clear
12:55 AM 64.4 °F 33.8 °F 32% 29.70 in 10.0 mi North 3.5 mph - N/A   Clear
1:15 AM 68.0 °F 35.6 °F 30% 29.70 in 10.0 mi Calm Calm - N/A   Clear
1:35 AM 64.4 °F 33.8 °F 32% 29.70 in 10.0 mi Calm Calm - N/A   Clear
1:55 AM 62.6 °F 32.0 °F 32% 29.69 in 10.0 mi ESE 5.8 mph - N/A   Clear
2:15 AM 62.6 °F 32.0 °F 32% 29.69 in 10.0 mi East 6.9 mph - N/A   Clear
2:35 AM 62.6 °F 33.8 °F 34% 29.68 in 10.0 mi ESE 9.2 mph - N/A   Clear
2:55 AM 60.8 °F 33.8 °F 36% 29.67 in 10.0 mi ESE 6.9 mph - N/A   Clear
3:15 AM 60.8 °F 33.8 °F 36% 29.66 in 10.0 mi ESE 8.1 mph - N/A   Clear
3:35 AM 60.8 °F 35.6 °F 39% 29.66 in 10.0 mi ESE 9.2 mph - N/A   Clear
3:55 AM 62.6 °F 35.6 °F 37% 29.65 in 10.0 mi East 6.9 mph - N/A   Clear
4:15 AM 60.8 °F 33.8 °F 36% 29.65 in 10.0 mi East 8.1 mph - N/A   Clear
4:35 AM 60.8 °F 33.8 °F 36% 29.64 in 10.0 mi ESE 9.2 mph - N/A   Clear
4:55 AM 59.0 °F 37.4 °F 45% 29.64 in 10.0 mi SE 8.1 mph - N/A   Clear
5:15 AM 59.0 °F 37.4 °F 45% 29.63 in 10.0 mi SSE 9.2 mph - N/A   Clear
5:47 AM 60.8 °F 37.4 °F 42% 29.63 in 20.0 mi SE 10.4 mph - N/A   Partly Cloudy
6:47 AM 60.8 °F 37.4 °F 42% 29.62 in 30.0 mi ESE 11.5 mph - N/A   Partly Cloudy
7:47 AM 64.4 °F 37.4 °F 37% 29.62 in 30.0 mi ESE 9.2 mph - N/A   Partly Cloudy
8:47 AM 73.4 °F 37.4 °F 27% 29.59 in 10.0 mi South 16.1 mph 23.0 mph N/A   Partly Cloudy
9:47 AM 75.2 °F 37.4 °F 25% 29.56 in 3.0 mi SSW 31.1 mph 40.3 mph N/A   Widespread Dust
10:47 AM 78.8 °F 37.4 °F 23% 29.56 in 5.0 mi SSW 25.3 mph 34.5 mph N/A   Widespread Dust
11:47 AM 80.6 °F 37.4 °F 21% 29.52 in 5.0 mi SW 26.5 mph 36.8 mph N/A   Widespread Dust
12:47 PM 80.6 °F 32.0 °F 17% 29.50 in 7.0 mi SW 26.5 mph 33.4 mph N/A   Widespread Dust
12:50 PM 80.6 °F 32.0 °F 17% 29.50 in 7.0 mi SW 26.5 mph 33.4 mph N/A   Widespread Dust
1:49 PM 84.2 °F 33.8 °F 16% 29.45 in 7.0 mi SW 26.5 mph 33.4 mph N/A   Widespread Dust
2:47 PM 82.4 °F 35.6 °F 19% 29.42 in 4.0 mi SW 24.2 mph 39.1 mph N/A   Scattered Clouds
3:47 PM 80.6 °F 30.2 °F 16% 29.43 in 2.0 mi WSW 34.5 mph 41.4 mph N/A   Scattered Clouds
4:47 PM 78.8 °F 32.0 °F 18% 29.41 in 3.0 mi WSW 27.6 mph 35.7 mph N/A   Scattered Clouds
5:47 PM 75.2 °F 26.6 °F 17% 29.42 in 3.0 mi SW 25.3 mph 39.1 mph N/A   Scattered Clouds
6:47 PM 73.4 °F 28.4 °F 19% 29.42 in 4.0 mi WSW 24.2 mph 32.2 mph N/A   Haze
7:47 PM 64.4 °F 35.6 °F 34% 29.45 in 8.0 mi NW 21.9 mph 31.1 mph N/A   Overcast
7:55 PM 62.6 °F 35.6 °F 37% 29.47 in 7.0 mi NW 25.3 mph 35.7 mph N/A   Overcast
8:15 PM 60.8 °F 39.2 °F 45% 29.50 in 7.0 mi NW 19.6 mph 27.6 mph N/A   Overcast
8:35 PM 60.8 °F 41.0 °F 48% 29.53 in 10.0 mi WNW 28.8 mph 35.7 mph 0.01 in Rain Light Rain
8:47 PM 59.0 °F 39.2 °F 48% 29.56 in 8.0 mi West 29.9 mph 36.8 mph N/A Rain Rain
8:55 PM 55.4 °F 44.6 °F 67% 29.57 in 7.0 mi NW 21.9 mph 36.8 mph 0.02 in Rain Heavy Rain
9:15 PM 53.6 °F 44.6 °F 72% 29.57 in 7.0 mi NW 12.7 mph - 0.03 in Rain , Thunderstorm Rain
9:35 PM 55.4 °F 42.8 °F 63% 29.59 in 7.0 mi NNW 19.6 mph - 0.06 in Rain Rain
9:55 PM 51.8 °F 42.8 °F 71% 29.59 in 7.0 mi NW 13.8 mph - 0.10 in Rain Rain
10:15 PM 51.8 °F 42.8 °F 71% 29.58 in 10.0 mi East 5.8 mph - N/A Rain Rain
10:35 PM 51.8 °F 44.6 °F 76% 29.57 in 10.0 mi ESE 8.1 mph - N/A   Overcast
10:55 PM 51.8 °F 46.4 °F 82% 29.57 in 10.0 mi ESE 9.2 mph - N/A   Mostly Cloudy
11:15 PM 51.8 °F 46.4 °F 82% 29.57 in 10.0 mi ESE 10.4 mph - N/A   Mostly Cloudy
11:35 PM 51.8 °F 46.4 °F 82% 29.58 in 10.0 mi SE 10.4 mph - N/A   Overcast
11:55 PM 51.8 °F 46.4 °F 82% 29.60 in 10.0 mi SSE 9.2 mph - N/A   Light Drizzle